Kilmarnock, Virginia, United States (22482)
Lat: 37.71N, Lon: 76.38W
Wx Zone: VAZ078
Local Info
Past Weather Observations for Yesterday

NOTE: This archive is for the closest National Weather Service station to Kilmarnock. Information may differ from the station used for current weather conditions.

Click here for Long-term Archive

Time Weather Temperature Dewpoint Humidity Pressure Winds Precip Visibility
23:55
Clear
43°F / 6°C 37°F / 3°C 81% 30.04 in
(1017 mb)
Calm - 10SM
23:35
Clear
45°F / 7°C 41°F / 5°C 87% 30.04 in
(1017 mb)
Calm - 10SM
23:15
Clear
45°F / 7°C 43°F / 6°C 93% 30.04 in
(1017 mb)
Calm - 10SM
22:55
Clear
45°F / 7°C 41°F / 5°C 87% 30.04 in
(1017 mb)
Calm - 10SM
22:35
Clear
45°F / 7°C 41°F / 5°C 87% 30.06 in
(1018 mb)
Calm - 10SM
22:15
Clear
43°F / 6°C 37°F / 3°C 81% 30.06 in
(1018 mb)
Calm - 10SM
21:55
Clear
46°F / 8°C 43°F / 6°C 87% 30.06 in
(1018 mb)
Calm - 10SM
21:35
Clear
45°F / 7°C 43°F / 6°C 93% 30.06 in
(1018 mb)
Calm - 10SM
21:15
Clear
45°F / 7°C 43°F / 6°C 93% 30.06 in
(1018 mb)
Calm - 10SM
20:55
Clear
43°F / 6°C 37°F / 3°C 81% 30.04 in
(1017 mb)
Calm - 10SM
20:35
Clear
48°F / 9°C 43°F / 6°C 82% 30.04 in
(1017 mb)
Calm - 10SM
20:15
Clear
48°F / 9°C 45°F / 7°C 87% 30.04 in
(1017 mb)
NW 3.5 mph
(NW 6 kph)
- 10SM
19:55
Clear
46°F / 8°C 43°F / 6°C 87% 30.04 in
(1017 mb)
Calm - 10SM
19:35
Clear
48°F / 9°C 43°F / 6°C 82% 30.04 in
(1017 mb)
Calm - 10SM
19:15
Clear
50°F / 10°C 45°F / 7°C 82% 30.06 in
(1018 mb)
Calm - 10SM
18:55
Clear
50°F / 10°C 43°F / 6°C 76% 30.06 in
(1018 mb)
Calm - 10SM
18:35
Clear
52°F / 11°C 43°F / 6°C 72% 30.06 in
(1018 mb)
Calm - 10SM
18:15
Clear
52°F / 11°C 43°F / 6°C 72% 30.06 in
(1018 mb)
Calm - 10SM
17:55
Clear
54°F / 12°C 45°F / 7°C 72% 30.04 in
(1017 mb)
Calm - 10SM
17:35
Partly Cloudy
54°F / 12°C 45°F / 7°C 72% 30.04 in
(1017 mb)
NE 3.5 mph
(NE 6 kph)
- 10SM
17:15
Partly Cloudy
57°F / 14°C 41°F / 5°C 55% 30.04 in
(1017 mb)
NE 3.5 mph
(NE 6 kph)
- 10SM
16:55
Clear
59°F / 15°C 41°F / 5°C 51% 30.04 in
(1017 mb)
NE 3.5 mph
(NE 6 kph)
- 10SM
16:35
Partly Cloudy
61°F / 16°C 37°F / 3°C 42% 30.04 in
(1017 mb)
Calm - 10SM
16:15
Mostly Cloudy
63°F / 17°C 37°F / 3°C 39% 30.04 in
(1017 mb)
Calm - 10SM
15:55
Partly Cloudy
63°F / 17°C 37°F / 3°C 39% 30.04 in
(1017 mb)
NW 3.5 mph
(NW 6 kph)
- 10SM
15:35
Partly Cloudy
63°F / 17°C 37°F / 3°C 39% 30.04 in
(1017 mb)
W 4.6 mph
(W 7 kph)
- 10SM
15:15
Mostly Cloudy
63°F / 17°C 39°F / 4°C 42% 30.04 in
(1017 mb)
Calm - 10SM
14:55
Mostly Cloudy
63°F / 17°C 37°F / 3°C 39% 30.04 in
(1017 mb)
Calm - 10SM
14:35
Partly Cloudy
66°F / 19°C 36°F / 2°C 32% 30.04 in
(1017 mb)
Calm - 10SM
14:15
Clear
66°F / 19°C 36°F / 2°C 32% 30.04 in
(1017 mb)
N 3.5 mph
(N 6 kph)
- 10SM
13:55
Clear
64°F / 18°C 36°F / 2°C 34% 30.04 in
(1017 mb)
NW 5.8 mph
(NW 9 kph)
- 7SM
13:35
Clear
64°F / 18°C 36°F / 2°C 34% 30.04 in
(1017 mb)
NNW 8.1 mph
(NNW 13 kph)
- 7SM
13:15
Clear
64°F / 18°C 37°F / 3°C 37% 30.04 in
(1017 mb)
NW 8.1 mph
(NW 13 kph)
- 10SM
12:55
Clear
64°F / 18°C 37°F / 3°C 37% 30.04 in
(1017 mb)
NW 3.5 mph
(NW 6 kph)
- 10SM
12:35
Clear
64°F / 18°C 39°F / 4°C 40% 30.04 in
(1017 mb)
N 5.8 mph
(N 9 kph)
- 10SM
12:15
Clear
64°F / 18°C 41°F / 5°C 43% 30.06 in
(1018 mb)
NNW 9.2 mph
(NNW 15 kph)
- 10SM
11:55
Clear
64°F / 18°C 41°F / 5°C 43% 30.06 in
(1018 mb)
NW 4.6 mph
(NW 7 kph)
- 10SM
11:35
Clear
64°F / 18°C 41°F / 5°C 43% 30.06 in
(1018 mb)
N 3.5 mph
(N 6 kph)
- 10SM
11:15
Clear
64°F / 18°C 41°F / 5°C 43% 30.06 in
(1018 mb)
N 5.8 mph
(N 9 kph)
- 10SM
10:55
Clear
63°F / 17°C 43°F / 6°C 49% 30.09 in
(1019 mb)
N 8.1 mph
(N 13 kph)
- 10SM
10:35
Clear
63°F / 17°C 43°F / 6°C 49% 30.09 in
(1019 mb)
NE 6.9 mph
(NE 11 kph)
- 10SM
10:15
Clear
63°F / 17°C 43°F / 6°C 49% 30.09 in
(1019 mb)
N 4.6 mph
(N 7 kph)
- 10SM
09:55
Clear
61°F / 16°C 45°F / 7°C 55% 30.09 in
(1019 mb)
NNE 6.9 mph
(NNE 11 kph)
- 10SM
09:35
Clear
59°F / 15°C 45°F / 7°C 59% 30.06 in
(1018 mb)
N 8.1 mph
(N 13 kph)
- 10SM
09:15
Clear
59°F / 15°C 48°F / 9°C 68% 30.06 in
(1018 mb)
N 4.6 mph
(N 7 kph)
- 10SM
08:55
Clear
57°F / 14°C 46°F / 8°C 67% 30.06 in
(1018 mb)
N 5.8 mph
(N 9 kph)
- 10SM
08:35
Clear
55°F / 13°C 48°F / 9°C 77% 30.06 in
(1018 mb)
N 6.9 mph
(N 11 kph)
- 10SM
08:15
Clear
54°F / 12°C 48°F / 9°C 82% 30.06 in
(1018 mb)
N 4.6 mph
(N 7 kph)
- 10SM
07:55
Clear
52°F / 11°C 50°F / 10°C 94% 30.06 in
(1018 mb)
N 4.6 mph
(N 7 kph)
- 10SM
07:35
Clear
52°F / 11°C 50°F / 10°C 94% 30.06 in
(1018 mb)
N 6.9 mph
(N 11 kph)
- 10SM
07:15
Clear
52°F / 11°C 50°F / 10°C 94% 30.06 in
(1018 mb)
Calm - 10SM
06:55
Clear
52°F / 11°C 50°F / 10°C 94% 30.06 in
(1018 mb)
Calm - 7SM
06:35
Clear
52°F / 11°C 50°F / 10°C 94% 30.04 in
(1017 mb)
NW 3.5 mph
(NW 6 kph)
- 2 1/2SM
06:15
Obscured
46°F / 8°C 45°F / 7°C 93% 30.04 in
(1017 mb)
Calm - 1/4SM
05:55
Obscured
48°F / 9°C 46°F / 8°C 94% 30.04 in
(1017 mb)
Calm - 1/4SM
05:35
Obscured
52°F / 11°C 48°F / 9°C 88% 30.04 in
(1017 mb)
Calm - 1/4SM
05:15
Mostly Cloudy
50°F / 10°C 48°F / 9°C 94% 30.04 in
(1017 mb)
Calm - 1/2SM
04:55
Partly Cloudy
54°F / 12°C 52°F / 11°C 94% 30.04 in
(1017 mb)
Calm - 10SM
04:35
Mostly Cloudy
55°F / 13°C 52°F / 11°C 88% 30.04 in
(1017 mb)
Calm - 10SM
04:15
Overcast
55°F / 13°C 54°F / 12°C 94% 30.01 in
(1016 mb)
Calm - 10SM
03:55
Mostly Cloudy
55°F / 13°C 54°F / 12°C 94% 30.04 in
(1017 mb)
Calm - 10SM
03:35
Mostly Cloudy
55°F / 13°C 52°F / 11°C 88% 30.01 in
(1016 mb)
Calm - 7SM
03:15
Mostly Cloudy
55°F / 13°C 54°F / 12°C 94% 30.01 in
(1016 mb)
Calm - 3SM
02:55
Mostly Cloudy
55°F / 13°C 54°F / 12°C 94% 30.01 in
(1016 mb)
Calm 0.01 in
(0.25 mm)
5SM
02:35
Overcast
55°F / 13°C 54°F / 12°C 94% 30.04 in
(1017 mb)
Calm 0.01 in
(0.25 mm)
10SM
02:15
Overcast
55°F / 13°C 54°F / 12°C 94% 30.04 in
(1017 mb)
Calm 0.01 in
(0.25 mm)
10SM
01:55
Overcast
55°F / 13°C 54°F / 12°C 94% 30.04 in
(1017 mb)
Calm - 10SM
01:35
Overcast
57°F / 14°C 54°F / 12°C 88% 30.04 in
(1017 mb)
Calm - 10SM
01:15
Overcast
55°F / 13°C 54°F / 12°C 94% 30.04 in
(1017 mb)
W 6.9 mph
(W 11 kph)
- 10SM
00:55
Overcast
55°F / 13°C 54°F / 12°C 94% 30.01 in
(1016 mb)
NW 3.5 mph
(NW 6 kph)
- 10SM
00:35
Mostly Cloudy
55°F / 13°C 54°F / 12°C 94% 30.01 in
(1016 mb)
NNW 3.5 mph
(NNW 6 kph)
- 7SM
00:15
Clear
54°F / 12°C 52°F / 11°C 94% 30.01 in
(1016 mb)
Calm - 2 1/2SM
Time Weather Temperature Dewpoint Humidity Pressure Winds Precip Visibility


Weather for websites

WeatherForYou.com, LLC is not responsible for any damages or problems caused by this service. Current weather conditions are obtained from the closest station including government and personal stations which may have varying degrees of accuracy. Weather forecasts are derived from the NOAA NDFD. Like all things, this site belongs to Jesus Christ... He just trusts me to maintain it. If you have any questions or comments email webmaster@weatherforyou.com

Copyright © 2014, WeatherForYou.com LLC. All rights reserved.